• MPC Preparation (Info)

  • MPEC 2006-J25 : 2006 JX

    The following Minor Planet Electronic Circular may be linked-to from your own Web pages, but must not otherwise be redistributed electronically.

    A form allowing access to any MPEC is at the bottom of this page.


    Read MPEC 2006-J24 Read MPEC 2006-J26


    M.P.E.C. 2006-J25                                Issued 2006 May 5, 14:47 UT
    
         The Minor Planet Electronic Circulars contain information on unusual
             minor planets and routine data on comets.  They are published
       on behalf of Commission 20 of the International Astronomical Union by the
              Minor Planet Center, Smithsonian Astrophysical Observatory,
                              Cambridge, MA 02138, U.S.A.
    
                      Supported in part by the Brinson Foundation
                      Supported in part by the TABASGO Foundation
                 Prepared using the Tamkin Foundation Computer Network
    
                                  MPC@CFA.HARVARD.EDU
              URL http://cfa-www.harvard.edu/iau/mpc.html  ISSN 1523-6714
    
                                        2006 JX
    
    Observations:
         K06J00X* C2006 05 04.65229 14 14 18.49 -33 39 37.6          18.1 V EJ025E12
         K06J00X  C2006 05 04.66275 14 14 18.92 -33 38 45.0          18.4 V EJ025E12
         K06J00X  C2006 05 04.67314 14 14 19.35 -33 37 52.5          18.2 V EJ025E12
         K06J00X  C2006 05 04.68360 14 14 19.78 -33 37 00.8          18.5 V EJ025E12
         K06J00X  C2006 05 04.78471 14 14 24.07 -33 28 32.0          18.3 V EJ025E12
         K06J00X  C2006 05 04.78513 14 14 24.21 -33 28 30.2          18.2 V EJ025E12
         K06J00X  C2006 05 04.78554 14 14 24.25 -33 28 26.7          19.0 V EJ025E12
         K06J00X  C2006 05 04.78596 14 14 24.28 -33 28 24.2          18.9 V EJ025E12
         K06J00X  C2006 05 05.26161 14 14 50.05 -32 49 40.7          18.9 R EJ025854
         K06J00X  C2006 05 05.26545 14 14 50.29 -32 49 22.4          19.0 R EJ025854
         K06J00X  C2006 05 05.26932 14 14 50.42 -32 49 02.3          18.9 R EJ025854
         K06J00X 2C2006 05 05.29013 14 14 51.00 -32 47 18.5          18.2 R EJ025H06
         K06J00X 2C2006 05 05.29779 14 14 51.34 -32 46 40.3          18.3 R EJ025H06
         K06J00X  C2006 05 05.39259 14 14 57.47 -32 38 13.9          17.9 R EJ025474
         K06J00X  C2006 05 05.40347 14 14 57.88 -32 37 20.6          18.1 R EJ025474
         K06J00X  C2006 05 05.40579 14 14 58.04 -32 37 10.0          18.3 R EJ025474
         K06J00X  C2006 05 05.41124 14 14 58.22 -32 36 42.2          18.2 R EJ025474
         K06J00X  C2006 05 05.47769 14 15 01.49 -32 31 20.4          18.6 V EJ025428
         K06J00X  C2006 05 05.48037 14 15 01.57 -32 31 07.0          18.9 V EJ025428
         K06J00X  C2006 05 05.48363 14 15 01.63 -32 30 51.0          18.8 V EJ025428
         K06J00X  C2006 05 05.48688 14 15 01.76 -32 30 35.0          18.6 V EJ025428
    
    Observer details:
    428 Reedy Creek.  Observer J. Broughton.  0.51-m f/2.7 reflector + CCD.
    474 Mount John Observatory, Lake Tekapo.  Observer A. C. Gilmore.  0.6-m f/6.4
        reflector + CCD.
    854 Sabino Canyon Observatory, Tucson.  Observer J. E. McGaha.  0.36-m f/10.0
        Schmidt-Cassegrain + CCD.
    E12 Siding Spring Survey.  Observer R. H. McNaught.  Measurers E. C. Beshore,
        E. J. Christensen, G. J. Garradd, A. R. Gibbs, A. D. Grauer, R. E. Hill,
        R. A. Kowalski, S. M. Larson, R. H. McNaught.  0.5-m Uppsala Schmidt + CCD.
    H06 New Mexico Skies Observatory.  Observer R. Hutsebaut.  0.25-m reflector
        + CCD.
    
    Orbital elements:
    2006 JX                                                  Earth MOID = 0.2956 AU
    Epoch 2006 Mar. 6.0 TT = JDT 2453800.5                  MPC
    M 352.49232              (2000.0)            P               Q
    n   0.44043063     Peri.  316.19975     -0.93820936     +0.11669795
    a   1.7108727      Node   233.38840     -0.07367168     -0.98720004
    e   0.2716219      Incl.   23.94629     -0.33813561     -0.10870913
    P   2.24           H   19.9           G   0.15           U   8
    Residuals in seconds of arc
    060504 E12  0.2-  0.1-    060504 E12  0.4+  0.9+    060505 474  0.0   0.1+
    060504 E12  0.1+  0.1+    060505 854  1.1-  0.0     060505 474  0.8+  0.8-
    060504 E12  0.3+  0.5+    060505 854  0.1+  0.8-    060505 474  0.3+  0.1+
    060504 E12  0.4+  0.3-    060505 854  0.0   0.1+    060505 428  0.3+  0.1-
    060504 E12  1.5-  0.6-    060505 H06  0.1-  0.5+    060505 428  0.0   0.1+
    060504 E12  0.0   1.0-    060505 H06  0.6+  0.5+    060505 428  0.7-  0.0
    060504 E12  0.3+  0.5+    060505 474  0.5+  0.4+    060505 428  0.6-  0.1-
    
    Ephemeris:
    2006 JX                  a,e,i = 1.71, 0.27, 24                  q = 1.2462
    Date    TT    R. A. (2000) Decl.     Delta      r     Elong.  Phase     V
    2006 05 05    14 14.61   -33 11.0    0.295    1.292   161.4    14.4    18.6
    2006 05 15    14 22.74   -19 37.5    0.312    1.314   165.0    11.5    18.7
    2006 05 25    14 31.10   -08 19.8    0.355    1.340   153.8    19.5    19.3
    2006 06 04    14 40.35   -00 26.7    0.418    1.369   142.2    27.0    19.9
    2006 06 14    14 50.77   +04 26.2    0.497    1.401   132.6    32.2    20.5
    2006 06 24    15 02.32   +07 08.6    0.585    1.434   124.9    35.5    21.0
    2006 07 04    15 15.04   +08 22.0    0.680    1.469   118.5    37.4    21.4
    2006 07 14    15 28.85   +08 36.7    0.781    1.505   113.1    38.4    21.8
    
    Kyle E. Smalley              (C) Copyright 2006 MPC           M.P.E.C. 2006-J25
    

    Read MPEC 2006-J24 Read MPEC 2006-J26


    MPEC number:

    Enter an MPEC number in one of the following forms:

    • 1997-B01 (the full form)
    • J97B01 (the packed version of the full form)
    • B01 (the abbreviated form)